Wainwright, AK

11:38 AM AKST on December 15, 2017 (GMT -0900)
Wainwright

Weather History for PAWI - December, 2012

Change the Weather History Date:

Sunday, December 9, 2012

  Actual Average (PABR) Record (PABR)
Temperature  
Mean Temperature -11 °F -  
Max Temperature -7 °F -4 °F 34 °F (1932)
Min Temperature -15 °F -15 °F -49 °F (1924)
Degree Days  
Heating Degree Days 76    
Moisture  
Dew Point -18 °F    
Average Humidity 73    
Maximum Humidity 84    
Minimum Humidity 70    
Precipitation  
Precipitation 0.00 in - - ()
Sea Level Pressure  
Sea Level Pressure 30.01 in    
Wind  
Wind Speed 9 mph (ENE)    
Max Wind Speed 12 mph    
Max Gust Speed -    
Visibility 10 miles    
Events      
Averages and records for this station are not official NWS values.
T = Trace of Precipitation, MM = Missing Value Source: NWS Daily Summary

Daily Weather History Graph

Daily Weather History Graph

Search for Another Location

Airport or City:

Trip Planner

Search our weather history database for the weather conditions in past years. The results will help you decide how hot, cold, wet, or windy it might be!

Date:

Astronomy

Dec. 31, 1969 Rise Set
Actual Time Sun does not rise Sun does not rise
Civil Twilight 11:29 AM AKST 3:35 PM AKST
Nautical Twilight 9:38 AM AKST 5:26 PM AKST
Astronomical Twilight 8:16 AM AKST 6:48 PM AKST
Moon 6:38 AM AKST (12/9) 1:15 PM AKST (12/9)
Length of Visible Light 4h 05m
Length of Day
0h 00m
Waning Crescent, 17% of the Moon is Illuminated
Dec 9
Waning Crescent
Dec 12
New
Dec 19
First Quarter
Dec 28
Full
Jan 4
Last Quarter

Hourly Weather History & Observations

Time (AKST) Temp. Windchill Dew Point Humidity Pressure Visibility Wind Dir Wind Speed Gust Speed Precip Events Conditions
12:53 AM -13.0 °F -32.4 °F -20.0 °F 71% 30.14 in 10.0 mi NE 10.4 mph - N/A   Clear
1:53 AM -13.0 °F -33.4 °F -18.9 °F 75% 30.12 in 10.0 mi NE 11.5 mph - N/A   Clear
3:21 AM -14.8 °F -33.5 °F -22.0 °F 70% 30.07 in 10.0 mi NE 9.2 mph - N/A   Mostly Cloudy
3:53 AM -11.0 °F -29.9 °F -18.0 °F 71% 30.07 in 10.0 mi NE 10.4 mph - N/A   Overcast
4:24 AM -11.2 °F -27.8 °F -18.4 °F 70% 30.05 in 10.0 mi NE 8.1 mph - N/A   Partly Cloudy
4:53 AM -11.0 °F -29.9 °F -18.0 °F 71% 30.04 in 10.0 mi NE 10.4 mph - N/A   Clear
5:53 AM -11.9 °F -28.7 °F -18.9 °F 71% 30.04 in 10.0 mi NE 8.1 mph - N/A   Clear
6:53 AM -13.0 °F -33.4 °F -20.0 °F 71% 30.03 in 10.0 mi ENE 11.5 mph - N/A   Clear
7:53 AM -11.9 °F -31.0 °F -18.9 °F 71% 30.03 in 10.0 mi ENE 10.4 mph - N/A   Clear
8:53 AM -15.0 °F -31.0 °F -20.9 °F 75% 30.02 in 10.0 mi ENE 6.9 mph - N/A   Clear
9:53 AM -15.0 °F -32.4 °F -20.9 °F 75% 30.01 in 10.0 mi ENE 8.1 mph - N/A   Clear
10:53 AM -11.9 °F -31.0 °F -18.0 °F 74% 30.00 in 10.0 mi NE 10.4 mph - N/A   Clear
11:53 AM -15.0 °F -33.7 °F -20.9 °F 75% 29.99 in 10.0 mi NE 9.2 mph - N/A   Clear
12:53 PM -13.0 °F -30.0 °F -18.9 °F 75% 29.99 in 10.0 mi ENE 8.1 mph - N/A   Mostly Cloudy
1:53 PM -8.0 °F -23.9 °F -14.1 °F 75% 29.99 in 10.0 mi ENE 8.1 mph - N/A   Overcast
2:53 PM -8.0 °F -25.0 °F -15.0 °F 71% 29.98 in 10.0 mi East 9.2 mph - N/A   Overcast
3:25 PM -9.4 °F -25.6 °F -16.6 °F 71% 29.97 in 10.0 mi East 8.1 mph - N/A   Partly Cloudy
3:49 PM -11.2 °F -27.8 °F -18.4 °F 70% 29.97 in 10.0 mi East 8.1 mph - N/A   Mostly Cloudy
3:53 PM -11.0 °F -27.6 °F -18.0 °F 71% 29.98 in 10.0 mi ENE 8.1 mph - N/A   Mostly Cloudy
4:53 PM -11.0 °F -27.6 °F -17.0 °F 75% 29.98 in 10.0 mi ENE 8.1 mph - N/A   Overcast
5:53 PM -9.9 °F -21.5 °F -16.1 °F 74% 29.98 in 10.0 mi NE 4.6 mph - N/A   Overcast
7:13 PM -7.6 °F -22.1 °F -14.8 °F 71% 29.97 in 7.0 mi ENE 6.9 mph - N/A   Overcast
7:53 PM -8.0 °F -22.5 °F -14.1 °F 75% 29.96 in 6.0 mi ENE 6.9 mph - N/A   Haze
8:53 PM -9.0 °F -22.3 °F -15.0 °F 75% 29.96 in 10.0 mi East 5.8 mph - N/A   Overcast
9:53 PM -11.9 °F -25.7 °F -18.0 °F 74% 29.95 in 10.0 mi ENE 5.8 mph - N/A   Mostly Cloudy
10:53 PM -14.1 °F -28.3 °F -18.9 °F 79% 29.95 in 10.0 mi ENE 5.8 mph - N/A   Mostly Cloudy
11:11 PM -14.8 °F -30.8 °F -18.4 °F 84% 29.95 in 10.0 mi East 6.9 mph - N/A   Mostly Cloudy
11:53 PM -13.0 °F -32.4 °F -18.0 °F 78% 29.95 in 10.0 mi East 10.4 mph - N/A   Overcast